カタログに戻る

INTELSAT 33E DEB

運用中MEO
NORAD 64408·DEBRIS· XX

打ち上げ Aug 24, 2016 から Guiana Space Centre

Loading…

次のパス (今後24時間)

TLE

最新Source: Space-Track

元期: Sep 13, 2026, 17:28 UTC

1 64408U 16053AN  26256.72846442 -.00000062  00000-0  00000-0 0  9994
2 64408   3.1600  85.2169 0760725   1.6991 358.9341  1.03213769  6997

AllMySatでINTELSAT 33E DEBをリアルタイム追跡

Download on the App Store